Find Starlink 30711

NORAD ID: 57940 Int'l Des: 2023-148 Owner: SPXS Country: US Constellation: starlink operational
LEOCIRCULAR

Live Position

Loading 3D Globe...

About Starlink 30711

Description loading...

Upcoming Passes

Passes for default location (London). Set your location on the main map for personalized predictions.

Altitude History

Loading altitude history...

Two-Line Element Set

1 57940U 23148F 26121.30060678 .00000105 00000-0 15658-4 0 9990
2 57940 53.1601 140.0946 0001243 94.6443 265.4700 15.30192353146475
Epoch: May 1, 2026 • Age: 7 hours

Current Status

Altitude 475.1 km
Velocity 7.63 km/s
Sub-Earth Point 11.80°N, 122.79°W
Launch Date Sep 25, 2023
Age 2.5 years
Type internet

Technical Details

Classification Payload
Mass 730.00 kg
Dry Mass 700.00 kg
Total Mass 730.00 kg
Length 0.30 m
Diameter 4.10 m
Span 29.00 m
Shape Box + pan
Manufacturer SPXS
Bus Type Starlink V2M
Phase Status In Orbit
Owner/State SPXS/US

Most Searched